(6) Hebe
ephemeris date magn radius delta ra dec elong phase
Today21 Nov 202410.92.620 AU3.559 AU16h42m-12°28'15.4°5.7°
Opposition26 Aug 20257.62.033 AU1.027 AU22h32m-17°18'172.5°3.7°
(6) Hebe - 2024-11-21
astro.vanbuitenen.nl


 
-1 year
-1 month
-1 day
Now
+1 day
+1 month
+1 year

The interactive orbit chart above shows the body's path through the solar system and its position at the given date. Green and blue lines are shown perpendicular to the ecliptic plane: Green if the path is above the ecliptic plane, blue if it is below. (Left-click and drag to rotate the view; Right-click and drag to move the view; Use scroll wheel to zoom in our out.)

The orbital elements of Hebe are:

            e (Eccentricity)                : 0.2024234
            a (Semimajor axis)              : 2.4260392
            i (Inclination)                 : 14.73436
            Ω (Longitude of ascending node) : 138.61983
            ω (Argument of perihelion)      : 239.64813
            M (Mean anomaly)                : 248.27292
            Epoch                           : 2024 Oct 17

            L (Longitude of perihelion)     : 197.42581
            B (Latitude of perihelion)      : -12.67838
            P (Orbital period in years)     : 3.78            
        

The light curve chart below shows the estimated development of the minor planet's magnitude.


The all-sky chart below shows the path of the minor planet over the same period as the light curve. The current position is marked yellow.





The following chart shows the path of the minor planet in the next few days. The field of view is optimized for (~10x50) binoculars and finderscopes. A more printer-friendly version of the same chart can be found below.




Ephemerides:
Date       Time       RA (2000)    DEC (2000)    delta   radius  elong  phase   PA    magn
2024-11-21 00:00 UT   16 42 33.1   -12 28 40     3.559    2.620   15.4    5.7    59   10.9 
2024-11-21 12:54 UT   16 43 29.3   -12 31 24     3.560    2.619   15.1    5.7    59   10.9 
2024-11-22 00:00 UT   16 44 17.7   -12 33 44     3.560    2.618   14.9    5.6    58   10.9 
2024-11-23 00:00 UT   16 46 02.5   -12 38 43     3.561    2.616   14.5    5.4    56   10.9 
2024-11-24 00:00 UT   16 47 47.6   -12 43 37     3.561    2.614   14.0    5.3    55   10.9 
2024-11-25 00:00 UT   16 49 33.0   -12 48 26     3.561    2.612   13.6    5.1    53   10.9 
2024-11-26 00:00 UT   16 51 18.7   -12 53 10     3.562    2.610   13.2    5.0    51   10.9 
2024-11-27 00:00 UT   16 53 04.6   -12 57 49     3.562    2.608   12.8    4.8    49   10.9 
2024-11-28 00:00 UT   16 54 50.8   -13 02 23     3.561    2.606   12.4    4.7    47   10.9 
2024-11-29 00:00 UT   16 56 37.2   -13 06 51     3.561    2.605   12.0    4.5    45   10.8 
2024-11-30 00:00 UT   16 58 23.9   -13 11 15     3.561    2.603   11.7    4.4    42   10.8 
2024-12-01 00:00 UT   17 00 10.8   -13 15 33     3.560    2.601   11.3    4.3    40   10.8 
2024-12-02 00:00 UT   17 01 58.0   -13 19 46     3.560    2.599   11.0    4.1    37   10.8 
2024-12-03 00:00 UT   17 03 45.4   -13 23 54     3.559    2.597   10.7    4.0    35   10.8 
2024-12-04 00:00 UT   17 05 33.1   -13 27 57     3.558    2.595   10.4    3.9    32   10.8 
2024-12-05 00:00 UT   17 07 21.0   -13 31 54     3.557    2.593   10.1    3.8    29   10.8 
2024-12-06 00:00 UT   17 09 09.1   -13 35 46     3.556    2.591    9.9    3.8    26   10.8 
2024-12-07 00:00 UT   17 10 57.4   -13 39 32     3.555    2.589    9.7    3.7    22   10.8 
2024-12-08 00:00 UT   17 12 45.9   -13 43 13     3.553    2.587    9.5    3.6    19   10.8 
2024-12-09 00:00 UT   17 14 34.6   -13 46 49     3.552    2.585    9.4    3.6    15   10.8 
2024-12-10 00:00 UT   17 16 23.5   -13 50 19     3.550    2.583    9.3    3.5    12   10.8 


    Terminology:
            
    delta:  distance between minor planet and earth in AU
    radius: distance between minor planet and sun in AU
    magn:   magnitude (brightness) estimate    
    ra:     right ascension in hours (24h = 360deg)
    dec:    declination in degrees
    elong:  elongation in degrees (angle sun-earth-minor planet)    
    phase:  phase angle in degrees (angle sun-minor planet-earth)        
    AU:     Astronomical Unit (mean distance between earth and sun: 149597870.7 km
    

Orbital elements provided by the MPC (Minor Planet Center).
Calculations by a modified version of AAPlus, a C# implementation of the AA+ project by PJ Naughter from the algorithms presented in the book "Astronomical Algorithms" by Jean Meeus.
NGC2000 dso catalog and star labels from VizieR as provided by the Strasbourg astronomical Data Center.
Tycho2 catalog from the ESO archive.